CST,Max TemperatureF,Mean TemperatureF,Min TemperatureF,Max Dew PointF,MeanDew PointF,Min DewpointF,Max Humidity, Mean Humidity, Min Humidity, Max Sea Level PressureIn, Mean Sea Level PressureIn, Min Sea Level PressureIn, Max VisibilityMiles, Mean VisibilityMiles, Min VisibilityMiles, Max Wind SpeedMPH, Mean Wind SpeedMPH, Max Gust SpeedMPH,PrecipitationIn, CloudCover, Events, WindDirDegrees
2013-2-1,45,30,14,18,11,6,73,51,29,30.48,30.35,30.19,10,10,10,20,6,26,0.00,0,,140
2013-2-2,54,37,20,30,25,18,88,62,35,30.27,30.23,30.17,10,10,10,17,5,21,0.00,1,,264
2013-2-3,55,46,36,30,25,19,64,46,28,30.31,30.18,30.00,10,10,10,17,5,29,0.00,0,,298
2013-2-4,59,46,32,44,36,24,100,70,39,29.97,29.91,29.84,10,8,0,23,7,30,0.06,2,Fog-Rain,220
2013-2-5,65,46,26,48,33,27,100,67,34,30.08,30.00,29.94,10,6,0,21,3,22,0.00,1,Fog,272
2013-2-6,66,46,26,41,34,26,100,68,36,30.13,30.05,29.95,10,10,9,23,6,29,0.00,1,,157
2013-2-7,58,51,44,54,48,40,100,84,68,30.08,29.94,29.86,10,8,2,17,8,24,0.32,7,Rain-Thunderstorm,212
2013-2-8,52,41,29,39,32,28,92,68,44,30.30,30.23,30.10,10,9,7,15,5,21,0.00,3,,26
2013-2-9,49,39,28,43,33,26,100,71,42,30.23,30.07,29.84,10,9,6,21,8,28,0.09,4,Rain,122
2013-2-10,60,54,47,55,38,25,100,66,31,30.06,29.77,29.66,10,9,4,26,14,37,0.46,4,Rain-Thunderstorm,216
2013-2-11,53,39,24,28,25,21,92,60,28,30.21,30.15,30.06,10,10,10,9,2,21,0.00,0,,330
2013-2-12,46,36,26,36,30,24,100,77,53,30.14,30.01,29.91,10,7,1,15,3,28,0.37,6,Rain-Snow,67
2013-2-13,50,41,32,36,33,29,100,73,46,30.05,29.99,29.94,10,9,4,15,7,20,0.02,4,,252
2013-2-14,59,44,28,33,30,25,85,61,36,30.17,30.05,29.98,10,10,10,13,7,30,0.00,1,,274
2013-2-15,45,37,28,29,21,13,78,59,40,30.35,30.29,30.18,10,10,10,17,10,22,0.00,3,,327
2013-2-16,37,29,20,25,19,15,85,66,47,30.38,30.27,30.15,10,9,1,30,7,78,T,7,Snow,285
2013-2-17,63,45,27,32,24,13,63,45,27,30.14,30.00,29.85,10,10,10,22,12,28,0.00,1,,187
2013-2-18,57,45,33,55,42,23,86,62,38,30.14,29.78,29.62,10,9,2,28,16,38,0.35,5,Rain-Thunderstorm,230
2013-2-19,45,33,20,23,21,18,92,65,37,30.33,30.26,30.16,10,10,10,18,5,24,0.00,0,,334
2013-2-20,34,30,25,34,27,19,100,80,59,30.33,30.21,30.05,10,7,0,13,4,16,0.30,7,Fog-Rain-Snow,65
2013-2-21,38,35,31,34,31,25,100,85,70,30.06,29.83,29.70,10,8,2,16,7,24,0.31,8,Rain-Thunderstorm,132
2013-2-22,39,30,21,30,22,16,92,70,48,30.14,30.03,29.90,10,10,10,17,6,24,0.00,2,,273
2013-2-23,45,32,18,25,21,16,100,71,41,30.12,30.04,29.97,10,9,5,15,1,18,0.00,0,,293
2013-2-24,58,39,20,33,27,18,100,68,36,30.01,29.94,29.85,10,9,7,16,5,21,0.00,0,,148
2013-2-25,44,36,27,41,36,26,92,75,57,29.86,29.56,29.41,10,8,1,21,5,29,0.36,7,Rain-Thunderstorm,50
2013-2-26,38,35,32,37,32,30,100,95,89,29.90,29.63,29.38,10,7,1,21,11,28,0.03,8,Snow,302
2013-2-27,42,36,30,31,29,25,92,76,59,30.11,29.99,29.89,10,8,5,22,9,29,0.00,6,,289
2013-2-28,38,32,26,28,26,24,92,78,64,30.20,30.16,30.08,10,9,7,16,9,22,0.00,6,,306